Location: Casteau
(50.5142°N, 4.0161°E)
Time: 20:30:28
(UTC+00:00)

Tiros 1 - Pass Details

Date: 06 August 2021
Orbit: 630 x 663 km, 48.4° (Epoch: 28 September)

Event Time Altitude Azimuth Distance (km) Brightness Sun altitude
Rises 20:11:50 0° 279° (W) 2,983 11.8 -7.8°
Reaches altitude 10° 20:14:15 10° 273° (W) 2,065 10.7 -8.1°
Maximum altitude 20:18:49 47° 200° (SSW) 860 7.7 -8.7°
Enters shadow 20:22:58 12° 128° (SE) 1,906 8.9 -9.2°
Drops below altitude 10° 20:23:19 10° 127° (SE) 2,039 - -9.2°
Sets 20:25:42 0° 122° (ESE) 2,941 - -9.5°
